STARLINK-6244, 56548

Orbit data source: Space-Track

STARLINK-6244, 56548 is a payload satellite owned by SpaceX/Seattle (US) in LEO that was launched on Sun, 14 May 2023 UTC via an FALCON 9 launch vehicle from the Air Force Eastern Test Range (AFETR). Payload-class satellites include a variety of spacecraft equipped with specific instruments for various scientific and technological missions. These include communications satellites like Starlink; space stations such as the ISS; scientific satellites like the Hubble; Earth observation satellites from companies like Planet Labs, Umbra, and HawkEye 360; GPS; miniature CubeSats for education and research; and military/defense satellites.

Loading next visibility...
Identifier
56548, 2023-065AX
Orbit
LEO
Country
Flag of USUS
Related business
Manufacturer
SpaceX/Seattle
Mission
Operational Commercial Communications
Bus & Motor
STARLINK, Unknown motor
Mass
305 kg wet, ~290 kg dry
Launch date (UTC)
2023-05-14 (3 years ago)
Launch vehicle
FALCON 9
Launch site
Air Force Eastern Test Range (AFETR)
Object type
Payload
Rocket body
Debris
Shape & HBR
Box + 1 Pan, 10.1 m
Radar Cross Section
11.087 m², Large (>1 m²)

Expand to show TLE details & history
Last TLE update: 3 days ago

TLE from 3 days ago
0 STARLINK-6244
1 56548U 23065AX  26170.52696627 -.00000208  00000-0  19483-5 0  9994
2 56548  43.0046   8.7346 0001181 273.5995  86.4722 15.27576041172047
Epoch: 2026-06-19T12:38Z
TLE epoch observation values (Epoch: 2026-06-19T12:38:49.885Z)
Latitude
-0°
Longitude
-88.72793°
Altitude
482.787 km
Speed
7.626 km/s
True Right ascension
00h 34m 56s
True Declination
0° 00' 00"
Sunlit
Object was in daylight at epoch
Visualization orbit readout
Latitude
Unknown
Longitude
Unknown
Altitude
Unknown
Speed
Unknown
Apparent Right ascension
Unknown
Apparent Declination
Unknown
Sunlit
N/A
Visualization observer readout
Local Sidereal Time
21:24:20
Azimuth
Unknown
Elevation
Unknown
Doppler factor
Unknown
Orbital elements
Apogee altitude
485.816 km
Perigee altitude
484.195 km
Semi-major axis
6,863.142 km
Eccentricity
0.00012
Inclination
43.0046°
RAAN
8.7346°
Arg. of periapsis
273.5995°
True anomaly
86.48571°
Mean anomaly
86.4722°
Eccentric anomaly
86.47895°
Mean motion
3.81732 °/min
Orbital period
94.31 mins
BSTAR
0.0000019483
Loading maneuver chart data...
Computing Atmospheric mass density...
Loading historical data...
Loading historical data...
Loading historical data...
Loading historical data...
Loading historical data...
Loading historical data...
Loading historical data...

Documentation

Showing up to 5 results
|